| time (UTC) | temp F | wind direction | speed MPH | gust MPH | rain 1hr in | rain 24hr in | rain mn in | humidity % | barometer mb |
| 20260831072247 | 55 | 278 | 0.0 | 1.0 | 0.00 | 0.00 | 0.00 | 92 | 1017.9 |
| 20260831071747 | 55 | 278 | 0.0 | 1.0 | 0.00 | 0.00 | 0.00 | 92 | 1017.9 |
| 20260831071247 | 55 | 278 | 0.0 | 4.0 | 0.00 | 0.00 | 0.00 | 92 | 1017.9 |
| 20260831070746 | 55 | 278 | 0.0 | 4.0 | 0.00 | 0.00 | 0.00 | 92 | 1018.0 |
| 20260831070246 | 55 | 302 | 2.0 | 4.0 | 0.00 | 0.00 | 0.00 | 92 | 1018.0 |
| 20260831065747 | 55 | 272 | 0.0 | 3.0 | 0.00 | 0.00 | 0.00 | 92 | 1018.0 |
| 20260831065246 | 55 | 267 | 0.0 | 3.0 | 0.00 | 0.00 | 0.00 | 91 | 1018.0 |
| 20260831064746 | 56 | 266 | 0.0 | 1.0 | 0.00 | 0.00 | 0.00 | 91 | 1018.2 |
| 20260831064246 | 56 | 266 | 0.0 | 2.0 | 0.00 | 0.00 | 0.00 | 91 | 1018.3 |
| 20260831063746 | 56 | 266 | 0.0 | 2.0 | 0.00 | 0.00 | 0.00 | 91 | 1018.3 |
| 20260831063246 | 56 | 252 | 0.0 | 2.0 | 0.00 | 0.00 | 0.00 | 91 | 1018.4 |
| 20260831062746 | 56 | 252 | 0.0 | 4.0 | 0.00 | 0.00 | 0.00 | 91 | 1018.4 |
| 20260831062246 | 56 | 252 | 2.0 | 5.0 | 0.00 | 0.00 | 0.00 | 91 | 1018.4 |
| 20260831061746 | 56 | 269 | 2.0 | 5.0 | 0.00 | 0.00 | 0.00 | 91 | 1018.4 |
| 20260831061246 | 56 | 266 | 2.0 | 4.0 | 0.00 | 0.00 | 0.00 | 91 | 1018.4 |
| 20260831060746 | 56 | 250 | 1.0 | 6.0 | 0.00 | 0.00 | 0.00 | 90 | 1018.4 |
| 20260831060245 | 56 | 268 | 2.0 | 6.0 | 0.00 | 0.00 | 0.00 | 91 | 1018.5 |
| 20260831055745 | 56 | 264 | 3.0 | 5.0 | 0.00 | 0.00 | 0.00 | 90 | 1018.4 |
| 20260831055245 | 56 | 283 | 3.0 | 5.0 | 0.00 | 0.00 | 0.00 | 90 | 1018.4 |
| 20260831054745 | 56 | 266 | 2.0 | 5.0 | 0.00 | 0.00 | 0.00 | 90 | 1018.4 |
| 20260831054245 | 56 | 264 | 3.0 | 5.0 | 0.00 | 0.00 | 0.00 | 90 | 1018.5 |
| 20260831053744 | 56 | 262 | 2.0 | 4.0 | 0.00 | 0.00 | 0.00 | 90 | 1018.5 |
| 20260831052744 | 57 | 267 | 3.0 | 5.0 | 0.00 | 0.00 | 0.00 | 90 | 1018.6 |
| 20260831052244 | 57 | 291 | 3.0 | 7.0 | 0.00 | 0.00 | 0.00 | 90 | 1018.7 |
| 20260831051744 | 57 | 274 | 3.0 | 7.0 | 0.00 | 0.00 | 0.00 | 89 | 1018.7 |
| 20260831051244 | 57 | 271 | 4.0 | 5.0 | 0.00 | 0.00 | 0.00 | 89 | 1018.8 |
| 20260831050244 | 57 | 281 | 1.0 | 6.0 | 0.00 | 0.00 | 0.00 | 89 | 1018.8 |
| 20260831045244 | 57 | 264 | 3.0 | 6.0 | 0.00 | 0.00 | 0.00 | 89 | 1018.8 |
| 20260831044743 | 57 | 266 | 3.0 | 6.0 | 0.00 | 0.00 | 0.00 | 89 | 1018.9 |
| 20260831044243 | 57 | 272 | 4.0 | 7.0 | 0.00 | 0.00 | 0.00 | 89 | 1018.9 |
| 20260831043743 | 57 | 271 | 2.0 | 7.0 | 0.00 | 0.00 | 0.00 | 89 | 1018.9 |
| 20260831043243 | 57 | 280 | 4.0 | 7.0 | 0.00 | 0.00 | 0.00 | 88 | 1018.9 |
| 20260831042743 | 58 | 262 | 4.0 | 7.0 | 0.00 | 0.00 | 0.00 | 88 | 1019.0 |
| 20260831042243 | 58 | 259 | 5.0 | 6.0 | 0.00 | 0.00 | 0.00 | 87 | 1019.1 |
| 20260831041743 | 58 | 283 | 4.0 | 5.0 | 0.00 | 0.00 | 0.00 | 87 | 1019.2 |
| 20260831041243 | 58 | 272 | 2.0 | 6.0 | 0.00 | 0.00 | 0.00 | 86 | 1019.1 |
| 20260831040742 | 59 | 231 | 1.0 | 6.0 | 0.00 | 0.00 | 0.00 | 86 | 1019.1 |
| 20260831040242 | 59 | 279 | 5.0 | 6.0 | 0.00 | 0.00 | 0.00 | 85 | 1019.1 |
| 20260831035743 | 59 | 279 | 3.0 | 6.0 | 0.00 | 0.00 | 0.00 | 85 | 1019.0 |
| 20260831035242 | 59 | 282 | 3.0 | 5.0 | 0.00 | 0.00 | 0.00 | 85 | 1019.0 |
| 20260831034743 | 60 | 255 | 1.0 | 4.0 | 0.00 | 0.00 | 0.00 | 84 | 1019.1 |
| 20260831034242 | 60 | 282 | 3.0 | 3.0 | 0.00 | 0.00 | 0.00 | 84 | 1019.1 |
| 20260831032241 | 60 | 277 | 0.0 | 0.0 | 0.00 | 0.00 | 0.00 | 83 | 1019.1 |
| 20260831031741 | 60 | 285 | 0.0 | 3.0 | 0.00 | 0.00 | 0.00 | 83 | 1019.1 |
| 20260831031241 | 60 | 266 | 0.0 | 4.0 | 0.00 | 0.00 | 0.00 | 83 | 1019.1 |
| 20260831030741 | 60 | 282 | 0.0 | 4.0 | 0.00 | 0.00 | 0.00 | 83 | 1019.1 |
| 20260831030241 | 60 | 273 | 1.0 | 4.0 | 0.00 | 0.00 | 0.00 | 83 | 1019.0 |
| 20260831025741 | 60 | 264 | 2.0 | 4.0 | 0.00 | 0.00 | 0.00 | 83 | 1018.9 |
| 20260831025241 | 60 | 273 | 0.0 | 4.0 | 0.00 | 0.00 | 0.00 | 83 | 1018.9 |
| 20260831024741 | 60 | 264 | 1.0 | 4.0 | 0.00 | 0.00 | 0.00 | 83 | 1019.0 |
| 20260831024241 | 60 | 311 | 2.0 | 5.0 | 0.00 | 0.00 | 0.00 | 83 | 1018.9 |
| 20260831023740 | 60 | 270 | 2.0 | 5.0 | 0.00 | 0.00 | 0.00 | 83 | 1019.0 |
| 20260831023241 | 60 | 269 | 2.0 | 4.0 | 0.00 | 0.00 | 0.00 | 83 | 1019.1 |
| 20260831022741 | 60 | 274 | 2.0 | 4.0 | 0.00 | 0.00 | 0.00 | 83 | 1019.1 |
| 20260831021741 | 60 | 279 | 2.0 | 6.0 | 0.00 | 0.00 | 0.00 | 82 | 1019.2 |
| 20260831021241 | 61 | 262 | 1.0 | 6.0 | 0.00 | 0.00 | 0.00 | 82 | 1019.3 |
| 20260831020740 | 61 | 281 | 2.0 | 5.0 | 0.00 | 0.00 | 0.00 | 81 | 1019.3 |
| 20260831020240 | 61 | 258 | 1.0 | 6.0 | 0.00 | 0.00 | 0.00 | 81 | 1019.4 |
| 20260831015740 | 61 | 267 | 4.0 | 6.0 | 0.00 | 0.00 | 0.00 | 81 | 1019.3 |
| 20260831015240 | 61 | 281 | 3.0 | 5.0 | 0.00 | 0.00 | 0.00 | 80 | 1019.4 |
| 20260831014739 | 61 | 264 | 3.0 | 6.0 | 0.00 | 0.00 | 0.00 | 80 | 1019.4 |
| 20260831013739 | 62 | 300 | 2.0 | 6.0 | 0.00 | 0.00 | 0.00 | 78 | 1019.4 |
| 20260831013239 | 63 | 275 | 1.0 | 4.0 | 0.00 | 0.00 | 0.00 | 77 | 1019.4 |
| 20260831012739 | 63 | 276 | 1.0 | 5.0 | 0.00 | 0.00 | 0.00 | 76 | 1019.5 |
| 20260831012239 | 63 | 283 | 1.0 | 5.0 | 0.00 | 0.00 | 0.00 | 75 | 1019.5 |
| 20260831011739 | 63 | 287 | 2.0 | 4.0 | 0.00 | 0.00 | 0.00 | 75 | 1019.5 |
| 20260831011239 | 63 | 226 | 0.0 | 4.0 | 0.00 | 0.00 | 0.00 | 76 | 1019.5 |
| 20260831010738 | 62 | 287 | 0.0 | 5.0 | 0.00 | 0.00 | 0.00 | 76 | 1019.7 |
| 20260831010239 | 62 | 245 | 1.0 | 5.0 | 0.00 | 0.00 | 0.00 | 76 | 1019.7 |
| 20260831005239 | 62 | 301 | 3.0 | 5.0 | 0.00 | 0.00 | 0.00 | 76 | 1019.7 |
| 20260831004738 | 62 | 266 | 1.0 | 6.0 | 0.00 | 0.00 | 0.00 | 76 | 1019.7 |
| 20260831004238 | 62 | 320 | 1.0 | 7.0 | 0.00 | 0.00 | 0.00 | 76 | 1019.8 |
| 20260831003738 | 62 | 259 | 3.0 | 8.0 | 0.00 | 0.00 | 0.00 | 76 | 1019.8 |
| 20260831003238 | 62 | 290 | 5.0 | 8.0 | 0.00 | 0.00 | 0.00 | 76 | 1019.8 |
| 20260831002738 | 62 | 279 | 4.0 | 7.0 | 0.00 | 0.00 | 0.00 | 76 | 1019.9 |
| 20260831002237 | 62 | 289 | 3.0 | 7.0 | 0.00 | 0.00 | 0.00 | 76 | 1020.0 |
| 20260831001737 | 62 | 271 | 4.0 | 8.0 | 0.00 | 0.00 | 0.00 | 75 | 1020.1 |
| 20260831000737 | 63 | 271 | 4.0 | 8.0 | 0.00 | 0.00 | 0.00 | 74 | 1020.0 |
| 20260831000237 | 63 | 251 | 1.0 | 8.0 | 0.00 | 0.00 | 0.00 | 74 | 1020.0 |
| 20260830235737 | 63 | 248 | 3.0 | 10.0 | 0.00 | 0.00 | 0.00 | 74 | 1020.0 |
| 20260830235237 | 63 | 281 | 3.0 | 10.0 | 0.00 | 0.00 | 0.00 | 73 | 1020.0 |
| 20260830234737 | 63 | 354 | 4.0 | 9.0 | 0.00 | 0.00 | 0.00 | 73 | 1020.0 |
| 20260830234237 | 63 | 317 | 2.0 | 9.0 | 0.00 | 0.00 | 0.00 | 72 | 1020.0 |
| 20260830233736 | 63 | 339 | 6.0 | 9.0 | 0.00 | 0.00 | 0.00 | 73 | 1020.1 |
| 20260830233237 | 63 | 285 | 5.0 | 9.0 | 0.00 | 0.00 | 0.00 | 72 | 1020.0 |
| 20260830232736 | 63 | 255 | 4.0 | 6.0 | 0.00 | 0.00 | 0.00 | 72 | 1020.1 |
| 20260830231236 | 65 | 281 | 0.0 | 9.0 | 0.00 | 0.00 | 0.00 | 69 | 1020.3 |
| 20260830230736 | 65 | 280 | 2.0 | 7.0 | 0.00 | 0.00 | 0.00 | 68 | 1020.3 |
| 20260830225735 | 66 | 18 | 3.0 | 4.0 | 0.00 | 0.00 | 0.00 | 64 | 1020.2 |
| 20260830225235 | 66 | 94 | 2.0 | 5.0 | 0.00 | 0.00 | 0.00 | 65 | 1020.2 |
| 20260830224735 | 66 | 41 | 2.0 | 6.0 | 0.00 | 0.00 | 0.00 | 66 | 1020.2 |
| 20260830224235 | 65 | 96 | 1.0 | 6.0 | 0.00 | 0.00 | 0.00 | 66 | 1020.2 |
| 20260830223735 | 66 | 113 | 3.0 | 6.0 | 0.00 | 0.00 | 0.00 | 65 | 1020.3 |
| 20260830223235 | 66 | 101 | 3.0 | 6.0 | 0.00 | 0.00 | 0.00 | 65 | 1020.2 |
| 20260830222735 | 66 | 77 | 0.0 | 4.0 | 0.00 | 0.00 | 0.00 | 66 | 1020.3 |
| 20260830222234 | 66 | 91 | 0.0 | 5.0 | 0.00 | 0.00 | 0.00 | 66 | 1020.3 |
| 20260830221735 | 66 | 48 | 2.0 | 5.0 | 0.00 | 0.00 | 0.00 | 64 | 1020.4 |
| 20260830221235 | 67 | 60 | 3.0 | 5.0 | 0.00 | 0.00 | 0.00 | 62 | 1020.4 |
| 20260830220734 | 66 | 51 | 2.0 | 5.0 | 0.00 | 0.00 | 0.00 | 66 | 1020.6 |
| 20260830220234 | 66 | 68 | 2.0 | 6.0 | 0.00 | 0.00 | 0.00 | 66 | 1020.6 |
| 20260830215734 | 66 | 88 | 4.0 | 8.0 | 0.00 | 0.00 | 0.00 | 65 | 1020.6 |
| 20260830215234 | 67 | 91 | 4.0 | 8.0 | 0.00 | 0.00 | 0.00 | 64 | 1020.7 |
| 20260830214734 | 67 | 84 | 4.0 | 8.0 | 0.00 | 0.00 | 0.00 | 64 | 1020.7 |
| 20260830214234 | 67 | 98 | 3.0 | 7.0 | 0.00 | 0.00 | 0.00 | 63 | 1020.7 |
| 20260830213734 | 67 | 103 | 4.0 | 9.0 | 0.00 | 0.00 | 0.00 | 63 | 1020.8 |
| 20260830213233 | 68 | 109 | 2.0 | 9.0 | 0.00 | 0.00 | 0.00 | 63 | 1020.7 |
| 20260830212733 | 68 | 104 | 6.0 | 10.0 | 0.00 | 0.00 | 0.00 | 63 | 1020.7 |
| 20260830212233 | 68 | 122 | 3.0 | 10.0 | 0.00 | 0.00 | 0.00 | 62 | 1020.7 |
| 20260830211733 | 68 | 87 | 3.0 | 9.0 | 0.00 | 0.00 | 0.00 | 64 | 1020.8 |
| 20260830211233 | 67 | 113 | 5.0 | 9.0 | 0.00 | 0.00 | 0.00 | 66 | 1020.7 |
| 20260830210733 | 67 | 198 | 5.0 | 9.0 | 0.00 | 0.00 | 0.00 | 67 | 1020.7 |
| 20260830210303 | 66 | 143 | 3.0 | 8.0 | 0.00 | 0.00 | 0.00 | 66 | 1020.7 |
| 20260830205733 | 66 | 88 | 3.0 | 8.0 | 0.00 | 0.00 | 0.00 | 68 | 1020.7 |
| 20260830203732 | 66 | 124 | 7.0 | 9.0 | 0.00 | 0.00 | 0.00 | 68 | 1020.8 |
| 20260830203232 | 66 | 110 | 4.0 | 10.0 | 0.00 | 0.00 | 0.00 | 68 | 1020.9 |
| 20260830202732 | 66 | 165 | 6.0 | 10.0 | 0.00 | 0.00 | 0.00 | 69 | 1020.9 |
| 20260830202232 | 66 | 124 | 8.0 | 9.0 | 0.00 | 0.00 | 0.00 | 68 | 1020.8 |
| 20260830201732 | 66 | 115 | 6.0 | 9.0 | 0.00 | 0.00 | 0.00 | 68 | 1020.9 |
| 20260830201232 | 66 | 153 | 3.0 | 9.0 | 0.00 | 0.00 | 0.00 | 69 | 1020.9 |
| 20260830200731 | 66 | 149 | 9.0 | 9.0 | 0.00 | 0.00 | 0.00 | 68 | 1021.0 |
| 20260830200232 | 66 | 131 | 3.0 | 7.0 | 0.00 | 0.00 | 0.00 | 70 | 1021.0 |
| 20260830195732 | 65 | 124 | 5.0 | 9.0 | 0.00 | 0.00 | 0.00 | 72 | 1020.9 |
| 20260830195232 | 65 | 158 | 5.0 | 9.0 | 0.00 | 0.00 | 0.00 | 72 | 1021.0 |
| 20260830194231 | 64 | 95 | 4.0 | 9.0 | 0.00 | 0.00 | 0.00 | 74 | 1021.0 |
| 20260830193731 | 64 | 148 | 2.0 | 9.0 | 0.00 | 0.00 | 0.00 | 73 | 1021.2 |
| 20260830193231 | 64 | 57 | 5.0 | 9.0 | 0.00 | 0.00 | 0.00 | 75 | 1021.1 |
| 20260830192230 | 62 | 125 | 3.0 | 10.0 | 0.00 | 0.00 | 0.00 | 78 | 1021.2 |
| 20260830191730 | 62 | 96 | 5.0 | 10.0 | 0.00 | 0.00 | 0.00 | 77 | 1021.1 |
| 20260830190730 | 63 | 123 | 4.0 | 10.0 | 0.00 | 0.00 | 0.00 | 75 | 1021.2 |
| 20260830190230 | 62 | 103 | 7.0 | 9.0 | 0.00 | 0.00 | 0.00 | 77 | 1021.3 |
| 20260830185230 | 62 | 123 | 3.0 | 8.0 | 0.00 | 0.00 | 0.00 | 78 | 1021.4 |
| 20260830184730 | 61 | 103 | 3.0 | 8.0 | 0.00 | 0.00 | 0.00 | 78 | 1021.3 |
| 20260830183800 | 61 | 88 | 2.0 | 6.0 | 0.00 | 0.00 | 0.00 | 80 | 1021.4 |
| 20260830183230 | 60 | 87 | 3.0 | 7.0 | 0.00 | 0.00 | 0.00 | 81 | 1021.4 |
| 20260830182759 | 60 | 105 | 2.0 | 7.0 | 0.00 | 0.00 | 0.00 | 81 | 1021.4 |
| 20260830182230 | 60 | 89 | 6.0 | 7.0 | 0.00 | 0.00 | 0.00 | 82 | 1021.4 |
| 20260830181729 | 61 | 101 | 5.0 | 7.0 | 0.00 | 0.00 | 0.00 | 81 | 1021.3 |
| 20260830181230 | 61 | 116 | 2.0 | 7.0 | 0.00 | 0.00 | 0.00 | 82 | 1021.3 |
| 20260830180730 | 60 | 110 | 2.0 | 5.0 | 0.00 | 0.00 | 0.00 | 83 | 1021.4 |
| 20260830180259 | 60 | 87 | 3.0 | 8.0 | 0.00 | 0.00 | 0.00 | 83 | 1021.3 |
| 20260830174759 | 60 | 99 | 5.0 | 10.0 | 0.00 | 0.00 | 0.00 | 82 | 1021.2 |
| 20260830174229 | 60 | 88 | 8.0 | 10.0 | 0.00 | 0.00 | 0.00 | 83 | 1021.2 |
| 20260830173729 | 60 | 97 | 4.0 | 9.0 | 0.00 | 0.00 | 0.00 | 82 | 1021.2 |
| 20260830173259 | 60 | 105 | 6.0 | 9.0 | 0.00 | 0.00 | 0.00 | 83 | 1021.1 |
| 20260830172728 | 60 | 74 | 4.0 | 8.0 | 0.00 | 0.00 | 0.00 | 83 | 1021.1 |
| 20260830172228 | 59 | 90 | 5.0 | 8.0 | 0.00 | 0.00 | 0.00 | 83 | 1021.2 |
| 20260830171728 | 61 | 93 | 7.0 | 8.0 | 0.00 | 0.00 | 0.00 | 81 | 1021.2 |
| 20260830171228 | 61 | 128 | 4.0 | 8.0 | 0.00 | 0.00 | 0.00 | 80 | 1021.2 |
| 20260830170758 | 60 | 95 | 4.0 | 10.0 | 0.00 | 0.00 | 0.00 | 81 | 1021.2 |
| 20260830170258 | 60 | 134 | 3.0 | 10.0 | 0.00 | 0.00 | 0.00 | 81 | 1021.2 |
| 20260830165258 | 60 | 110 | 3.0 | 9.0 | 0.00 | 0.00 | 0.00 | 82 | 1021.2 |
| 20260830163758 | 59 | 158 | 2.0 | 5.0 | 0.00 | 0.00 | 0.00 | 85 | 1021.3 |
| 20260830163257 | 59 | 121 | 3.0 | 5.0 | 0.00 | 0.00 | 0.00 | 85 | 1021.2 |
| 20260830162758 | 59 | 158 | 1.0 | 4.0 | 0.00 | 0.00 | 0.00 | 85 | 1021.3 |
| 20260830162258 | 58 | 152 | 3.0 | 4.0 | 0.00 | 0.00 | 0.00 | 87 | 1021.3 |
| 20260830161758 | 58 | 98 | 4.0 | 5.0 | 0.00 | 0.00 | 0.00 | 87 | 1021.2 |
| 20260830160757 | 58 | 116 | 4.0 | 4.0 | 0.00 | 0.00 | 0.00 | 87 | 1021.2 |
| 20260830160257 | 58 | 115 | 1.0 | 3.0 | 0.00 | 0.00 | 0.00 | 87 | 1021.2 |
| 20260830155757 | 58 | 84 | 2.0 | 3.0 | 0.00 | 0.00 | 0.00 | 86 | 1021.2 |
| 20260830155257 | 58 | 150 | 0.0 | 3.0 | 0.00 | 0.00 | 0.00 | 87 | 1021.1 |
| 20260830154757 | 57 | 128 | 1.0 | 3.0 | 0.00 | 0.00 | 0.00 | 87 | 1021.2 |
| 20260830154257 | 57 | 201 | 2.0 | 3.0 | 0.00 | 0.00 | 0.00 | 88 | 1021.2 |
| 20260830153756 | 57 | 155 | 0.0 | 3.0 | 0.00 | 0.00 | 0.00 | 88 | 1021.2 |
| 20260830153256 | 56 | 145 | 2.0 | 3.0 | 0.00 | 0.00 | 0.00 | 88 | 1021.1 |
| 20260830152756 | 56 | 160 | 2.0 | 3.0 | 0.00 | 0.00 | 0.00 | 89 | 1021.2 |
| 20260830152256 | 56 | 223 | 2.0 | 2.0 | 0.00 | 0.00 | 0.00 | 90 | 1021.2 |
| 20260830151756 | 56 | 119 | 0.0 | 2.0 | 0.00 | 0.00 | 0.00 | 89 | 1021.2 |
| 20260830151256 | 56 | 119 | 0.0 | 3.0 | 0.00 | 0.00 | 0.00 | 89 | 1021.1 |
| 20260830150756 | 56 | 108 | 2.0 | 3.0 | 0.00 | 0.00 | 0.00 | 89 | 1021.2 |
| 20260830150256 | 56 | 114 | 0.0 | 3.0 | 0.00 | 0.00 | 0.00 | 89 | 1021.1 |
| 20260830145255 | 56 | 145 | 0.0 | 2.0 | 0.00 | 0.00 | 0.00 | 89 | 1021.1 |
| 20260830144255 | 56 | 196 | 0.0 | 3.0 | 0.00 | 0.00 | 0.00 | 89 | 1021.0 |
| 20260830143755 | 56 | 154 | 0.0 | 3.0 | 0.00 | 0.00 | 0.00 | 89 | 1021.0 |
| 20260830142755 | 55 | 166 | 0.0 | 2.0 | 0.00 | 0.00 | 0.00 | 90 | 1021.0 |
| 20260830142255 | 55 | 176 | 0.0 | 0.0 | 0.00 | 0.00 | 0.00 | 90 | 1020.9 |
| 20260830141755 | 55 | 176 | 0.0 | 3.0 | 0.00 | 0.00 | 0.00 | 91 | 1020.8 |
| 20260830140754 | 54 | 161 | 0.0 | 4.0 | 0.00 | 0.00 | 0.00 | 91 | 1020.8 |
| 20260830140255 | 54 | 167 | 1.0 | 3.0 | 0.00 | 0.00 | 0.00 | 91 | 1020.8 |
| 20260830135754 | 54 | 206 | 0.0 | 2.0 | 0.00 | 0.00 | 0.00 | 91 | 1020.8 |
| 20260830135254 | 54 | 167 | 0.0 | 4.0 | 0.00 | 0.00 | 0.00 | 91 | 1020.7 |
| 20260830134254 | 54 | 176 | 4.0 | 5.0 | 0.00 | 0.00 | 0.00 | 91 | 1020.6 |
| 20260830133754 | 54 | 171 | 0.0 | 5.0 | 0.00 | 0.00 | 0.00 | 91 | 1020.6 |
| 20260830132754 | 54 | 201 | 0.0 | 4.0 | 0.00 | 0.00 | 0.00 | 91 | 1020.5 |
| 20260830132254 | 54 | 180 | 2.0 | 5.0 | 0.00 | 0.00 | 0.00 | 91 | 1020.5 |
| 20260830131754 | 54 | 148 | 2.0 | 5.0 | 0.00 | 0.00 | 0.00 | 91 | 1020.5 |
| 20260830131253 | 54 | 207 | 5.0 | 5.0 | 0.00 | 0.00 | 0.00 | 91 | 1020.5 |
| 20260830130753 | 54 | 241 | 2.0 | 4.0 | 0.00 | 0.00 | 0.00 | 91 | 1020.5 |
| 20260830130253 | 54 | 238 | 2.0 | 4.0 | 0.00 | 0.00 | 0.00 | 91 | 1020.5 |
| 20260830125753 | 54 | 225 | 0.0 | 4.0 | 0.00 | 0.00 | 0.00 | 91 | 1020.5 |
| 20260830125253 | 54 | 223 | 1.0 | 6.0 | 0.00 | 0.00 | 0.00 | 90 | 1020.6 |
| 20260830124753 | 54 | 226 | 0.0 | 6.0 | 0.00 | 0.00 | 0.00 | 91 | 1020.6 |
| 20260830124253 | 54 | 225 | 2.0 | 4.0 | 0.00 | 0.00 | 0.00 | 91 | 1020.6 |
| 20260830123753 | 54 | 238 | 2.0 | 4.0 | 0.00 | 0.00 | 0.00 | 91 | 1020.5 |
| 20260830123253 | 54 | 276 | 0.0 | 4.0 | 0.00 | 0.00 | 0.00 | 90 | 1020.5 |
| 20260830122753 | 54 | 231 | 0.0 | 5.0 | 0.00 | 0.00 | 0.00 | 90 | 1020.5 |
| 20260830122252 | 54 | 203 | 0.0 | 5.0 | 0.00 | 0.00 | 0.00 | 90 | 1020.5 |
| 20260830121752 | 54 | 214 | 1.0 | 5.0 | 0.00 | 0.00 | 0.00 | 90 | 1020.5 |
| 20260830121252 | 54 | 212 | 0.0 | 5.0 | 0.00 | 0.00 | 0.00 | 90 | 1020.6 |
| 20260830120752 | 55 | 221 | 0.0 | 5.0 | 0.00 | 0.00 | 0.00 | 89 | 1020.6 |
| 20260830120252 | 55 | 221 | 1.0 | 4.0 | 0.00 | 0.00 | 0.00 | 89 | 1020.7 |
| 20260830115752 | 55 | 245 | 2.0 | 3.0 | 0.00 | 0.00 | 0.00 | 89 | 1020.7 |
| 20260830115252 | 55 | 221 | 0.0 | 5.0 | 0.00 | 0.00 | 0.00 | 89 | 1020.7 |
| 20260830114752 | 55 | 255 | 0.0 | 5.0 | 0.00 | 0.00 | 0.00 | 89 | 1020.7 |
| 20260830114252 | 55 | 210 | 3.0 | 4.0 | 0.00 | 0.00 | 0.00 | 89 | 1020.8 |
| 20260830113751 | 55 | 198 | 2.0 | 4.0 | 0.00 | 0.00 | 0.00 | 89 | 1020.7 |
| 20260830112751 | 55 | 208 | 3.0 | 5.0 | 0.00 | 0.01 | 0.00 | 88 | 1020.7 |
| 20260830112251 | 55 | 201 | 1.0 | 5.0 | 0.00 | 0.01 | 0.00 | 88 | 1020.8 |
| 20260830111752 | 55 | 212 | 2.0 | 2.0 | 0.00 | 0.01 | 0.00 | 88 | 1020.8 |
| 20260830111252 | 55 | 238 | 2.0 | 3.0 | 0.00 | 0.01 | 0.00 | 88 | 1020.8 |
| 20260830110751 | 55 | 204 | 0.0 | 3.0 | 0.00 | 0.01 | 0.00 | 88 | 1020.8 |
| 20260830105251 | 55 | 227 | 0.0 | 4.0 | 0.00 | 0.01 | 0.00 | 88 | 1020.7 |
| 20260830104751 | 55 | 223 | 2.0 | 4.0 | 0.00 | 0.01 | 0.00 | 88 | 1020.7 |
| 20260830104250 | 55 | 203 | 2.0 | 3.0 | 0.00 | 0.01 | 0.00 | 88 | 1020.7 |
| 20260830103250 | 56 | 174 | 2.0 | 3.0 | 0.00 | 0.01 | 0.00 | 88 | 1020.6 |
| 20260830102750 | 56 | 189 | 0.0 | 3.0 | 0.00 | 0.01 | 0.00 | 87 | 1020.6 |
| 20260830102250 | 56 | 200 | 0.0 | 3.0 | 0.00 | 0.01 | 0.00 | 87 | 1020.6 |
| 20260830101751 | 56 | 221 | 1.0 | 3.0 | 0.00 | 0.01 | 0.00 | 86 | 1020.6 |
| 20260830101250 | 56 | 228 | 1.0 | 5.0 | 0.00 | 0.01 | 0.00 | 86 | 1020.6 |
| 20260830100750 | 56 | 220 | 3.0 | 5.0 | 0.00 | 0.02 | 0.00 | 86 | 1020.5 |
| 20260830100250 | 56 | 232 | 0.0 | 5.0 | 0.00 | 0.02 | 0.00 | 86 | 1020.5 |
| 20260830095750 | 56 | 232 | 1.0 | 5.0 | 0.00 | 0.02 | 0.00 | 86 | 1020.5 |
| 20260830095250 | 56 | 250 | 0.0 | 2.0 | 0.00 | 0.02 | 0.00 | 86 | 1020.5 |
| 20260830094749 | 56 | 210 | 2.0 | 2.0 | 0.00 | 0.02 | 0.00 | 86 | 1020.5 |
| 20260830094250 | 56 | 248 | 0.0 | 5.0 | 0.00 | 0.02 | 0.00 | 86 | 1020.5 |
| 20260830093749 | 56 | 248 | 1.0 | 5.0 | 0.00 | 0.02 | 0.00 | 86 | 1020.5 |
| 20260830093249 | 56 | 208 | 0.0 | 3.0 | 0.00 | 0.02 | 0.00 | 86 | 1020.5 |
| 20260830092750 | 56 | 231 | 0.0 | 5.0 | 0.00 | 0.02 | 0.00 | 86 | 1020.5 |
| 20260830091749 | 56 | 257 | 0.0 | 5.0 | 0.00 | 0.02 | 0.00 | 86 | 1020.5 |
| 20260830091249 | 56 | 274 | 0.0 | 5.0 | 0.00 | 0.02 | 0.00 | 86 | 1020.4 |
| 20260830090749 | 56 | 250 | 2.0 | 5.0 | 0.00 | 0.02 | 0.00 | 86 | 1020.4 |
| 20260830090249 | 56 | 255 | 0.0 | 8.0 | 0.00 | 0.02 | 0.00 | 86 | 1020.4 |
| 20260830085748 | 56 | 265 | 0.0 | 8.0 | 0.00 | 0.02 | 0.00 | 86 | 1020.3 |
| 20260830085249 | 56 | 333 | 1.0 | 7.0 | 0.00 | 0.02 | 0.00 | 86 | 1020.3 |
| 20260830084748 | 56 | 270 | 1.0 | 9.0 | 0.00 | 0.02 | 0.00 | 86 | 1020.3 |
| 20260830084248 | 56 | 277 | 1.0 | 9.0 | 0.00 | 0.03 | 0.00 | 86 | 1020.3 |
| 20260830083748 | 56 | 229 | 2.0 | 7.0 | 0.00 | 0.03 | 0.00 | 86 | 1020.4 |
| 20260830083248 | 56 | 249 | 3.0 | 6.0 | 0.00 | 0.03 | 0.00 | 86 | 1020.3 |
| 20260830082748 | 56 | 285 | 2.0 | 8.0 | 0.00 | 0.03 | 0.00 | 86 | 1020.3 |
| 20260830081748 | 56 | 290 | 5.0 | 8.0 | 0.00 | 0.03 | 0.00 | 85 | 1020.2 |
| 20260830081248 | 56 | 265 | 3.0 | 9.0 | 0.00 | 0.04 | 0.00 | 85 | 1020.2 |
| 20260830080747 | 56 | 293 | 3.0 | 9.0 | 0.00 | 0.04 | 0.00 | 85 | 1020.1 |
| 20260830080248 | 56 | 262 | 0.0 | 9.0 | 0.00 | 0.04 | 0.00 | 84 | 1020.1 |
| 20260830075747 | 56 | 263 | 1.0 | 8.0 | 0.00 | 0.04 | 0.00 | 84 | 1020.0 |
| 20260830075248 | 56 | 279 | 2.0 | 8.0 | 0.00 | 0.05 | 0.00 | 84 | 1020.1 |
| 20260830074747 | 56 | 290 | 1.0 | 13.0 | 0.00 | 0.06 | 0.00 | 84 | 1020.0 |
| 20260830074247 | 56 | 237 | 4.0 | 13.0 | 0.00 | 0.06 | 0.00 | 84 | 1020.1 |
| 20260830073747 | 56 | 289 | 5.0 | 9.0 | 0.00 | 0.06 | 0.00 | 84 | 1020.0 |
| 20260830073247 | 56 | 334 | 3.0 | 9.0 | 0.00 | 0.06 | 0.00 | 85 | 1020.0 |
| 20260830072747 | 56 | 290 | 1.0 | 9.0 | 0.00 | 0.07 | 0.00 | 85 | 1019.9 |